When you browse on this site, cookies collect data to enhance your experience and personalize the content and advertising you see.
Visit our Privacy Policy to learn more. By continuing to use the site, you agree to this use of cookies and data.
  • In Portugal
  • List of Countries
  • For 7 days
  • Water Temperature
  • Satellite Maps
  • Weather Map
  • Weather Widgets
  • user-avatar
    Login

    Hourly Weather Orlovichi

    Today, 21 February, Thursday

    Time Temperature Precipitation Wind Pressure Humidity
    00:00 -8°C° 0 mm 6 mps 737 mmHg 78%
    01:00 -8°C° 0 mm 6 mps 738 mmHg 79%
    02:00 -8°C° 0 mm 4 mps 738 mmHg 85%
    03:00 -8°C° 0 mm 5 mps 738 mmHg 84%
    04:00 -9°C° 0 mm 6 mps 739 mmHg 82%
    05:00 -9°C° 0 mm 7 mps 739 mmHg 81%
    06:00 -11°C° 0 mm 7 mps 739 mmHg 80%
    07:00 -11°C° 0 mm 7 mps 740 mmHg 79%
    08:00 -11°C° 0 mm 7 mps 740 mmHg 78%
    09:00 -11°C° 0.1 mm 7 mps 741 mmHg 77%
    10:00 -10°C° 0.1 mm 8 mps 741 mmHg 75%
    11:00 -8°C° 0.1 mm 8 mps 742 mmHg 73%
    12:00 -8°C° 0.1 mm 8 mps 742 mmHg 73%
    13:00 -8°C° 0.1 mm 8 mps 743 mmHg 72%
    14:00 -8°C° 0.1 mm 8 mps 743 mmHg 72%
    15:00 -9°C° 0 mm 7 mps 744 mmHg 73%
    16:00 -11°C° 0 mm 7 mps 744 mmHg 75%
    17:00 -10°C° 0 mm 6 mps 745 mmHg 76%
    18:00 -11°C° 0 mm 5 mps 745 mmHg 77%
    19:00 -12°C° 0 mm 5 mps 746 mmHg 79%
    20:00 -12°C° 0 mm 5 mps 746 mmHg 80%
    21:00 -12°C° 0 mm 5 mps 747 mmHg 81%
    22:00 -13°C° 0 mm 5 mps 747 mmHg 81%
    23:00 -13°C° 0 mm 5 mps 748 mmHg 82%

    Tomorrow, 22 February, Friday

    Time Temperature Precipitation Wind Pressure Humidity
    00:00 -13°C° 0 mm 5 mps 748 mmHg 81%
    01:00 -14°C° 0 mm 5 mps 749 mmHg 81%
    02:00 -14°C° 0 mm 5 mps 749 mmHg 80%
    03:00 -14°C° 0 mm 5 mps 749 mmHg 80%
    04:00 -14°C° 0 mm 5 mps 750 mmHg 81%
    05:00 -15°C° 0 mm 5 mps 750 mmHg 82%
    06:00 -14°C° 0 mm 5 mps 750 mmHg 81%
    07:00 -15°C° 0 mm 6 mps 751 mmHg 80%
    08:00 -15°C° 0 mm 6 mps 751 mmHg 80%
    09:00 -14°C° 0 mm 7 mps 752 mmHg 78%
    10:00 -14°C° 0 mm 7 mps 752 mmHg 75%
    11:00 -13°C° 0 mm 8 mps 752 mmHg 73%
    12:00 -13°C° 0 mm 8 mps 753 mmHg 72%
    13:00 -12°C° 0 mm 8 mps 753 mmHg 71%
    14:00 -12°C° 0 mm 8 mps 754 mmHg 69%
    15:00 -12°C° 0 mm 7 mps 754 mmHg 71%
    16:00 -12°C° 0 mm 6 mps 755 mmHg 74%
    17:00 -12°C° 0 mm 5 mps 755 mmHg 76%
    18:00 -12°C° 0 mm 5 mps 756 mmHg 77%
    19:00 -12°C° 0 mm 4 mps 757 mmHg 79%
    20:00 -12°C° 0 mm 4 mps 757 mmHg 80%
    21:00 -14°C° 0 mm 4 mps 758 mmHg 81%
    22:00 -14°C° 0 mm 4 mps 758 mmHg 82%
    23:00 -14°C° 0 mm 5 mps 759 mmHg 83%

    Day after tomorrow, 23 February, Saturday

    Time Temperature Precipitation Wind Pressure Humidity
    00:00 -15°C° 0 mm 4 mps 759 mmHg 84%
    01:00 -15°C° 0 mm 4 mps 759 mmHg 86%
    02:00 -15°C° 0 mm 4 mps 760 mmHg 87%
    03:00 -16°C° 0 mm 4 mps 760 mmHg 89%
    04:00 -16°C° 0 mm 4 mps 760 mmHg 90%
    05:00 -16°C° 0 mm 4 mps 761 mmHg 91%
    06:00 -16°C° 0 mm 4 mps 761 mmHg 91%
    07:00 -15°C° 0 mm 3 mps 761 mmHg 92%
    08:00 -15°C° 0 mm 3 mps 762 mmHg 92%
    09:00 -14°C° 0 mm 3 mps 762 mmHg 88%
    10:00 -13°C° 0 mm 3 mps 762 mmHg 84%
    11:00 -10°C° 0 mm 3 mps 762 mmHg 80%
    12:00 -9°C° 0 mm 3 mps 762 mmHg 77%
    13:00 -8°C° 0 mm 3 mps 762 mmHg 75%
    14:00 -6°C° 0 mm 2 mps 762 mmHg 72%
    15:00 -7°C° 0 mm 2 mps 761 mmHg 75%
    16:00 -7°C° 0 mm 2 mps 761 mmHg 78%
    17:00 -7°C° 0 mm 2 mps 761 mmHg 81%
    18:00 -7°C° 0 mm 2 mps 761 mmHg 81%
    19:00 -7°C° 0 mm 2 mps 761 mmHg 81%
    20:00 -7°C° 0 mm 2 mps 760 mmHg 81%
    21:00 -8°C° 0 mm 3 mps 760 mmHg 81%
    22:00 -7°C° 0 mm 3 mps 760 mmHg 80%
    23:00 -7°C° 0 mm 3 mps 759 mmHg 79%

    24 February, Sunday

    Time Temperature Precipitation Wind Pressure Humidity
    00:00 -7°C° 0.1 mm 3 mps 759 mmHg 82%
    01:00 -8°C° 0.1 mm 4 mps 759 mmHg 85%
    02:00 -8°C° 0.1 mm 4 mps 758 mmHg 89%
    03:00 -8°C° 0.3 mm 4 mps 758 mmHg 90%
    04:00 -8°C° 0.3 mm 4 mps 757 mmHg 91%
    05:00 -7°C° 0.3 mm 4 mps 757 mmHg 93%
    06:00 -6°C° 0.2 mm 3 mps 756 mmHg 93%
    07:00 -6°C° 0.2 mm 3 mps 756 mmHg 93%
    08:00 -5°C° 0.2 mm 3 mps 756 mmHg 94%
    09:00 -4°C° 0 mm 3 mps 756 mmHg 94%
    10:00 -4°C° 0 mm 3 mps 757 mmHg 94%
    11:00 -2°C° 0 mm 3 mps 757 mmHg 94%
    12:00 -1°C° 0 mm 3 mps 757 mmHg 95%
    13:00 -1°C° 0 mm 2 mps 757 mmHg 97%
    14:00 -1°C° 0 mm 2 mps 756 mmHg 98%
    15:00 -1°C° 0 mm 2 mps 756 mmHg 98%
    16:00 -1°C° 0 mm 2 mps 756 mmHg 97%
    17:00 -1°C° 0 mm 2 mps 756 mmHg 96%
    18:00 -1°C° 0 mm 2 mps 756 mmHg 96%
    19:00 -1°C° 0 mm 2 mps 756 mmHg 97%
    20:00 -2°C° 0 mm 2 mps 756 mmHg 97%
    21:00 -2°C° 0 mm 3 mps 756 mmHg 96%
    22:00 -2°C° 0 mm 3 mps 756 mmHg 96%
    23:00 -3°C° 0 mm 4 mps 755 mmHg 95%

    25 February, Monday

    Time Temperature Precipitation Wind Pressure Humidity
    00:00 -3°C° 0.1 mm 4 mps 755 mmHg 95%
    01:00 -2°C° 0.1 mm 4 mps 755 mmHg 94%
    02:00 -2°C° 0.1 mm 5 mps 755 mmHg 93%
    03:00 -2°C° 0 mm 5 mps 754 mmHg 93%
    04:00 -2°C° 0 mm 5 mps 753 mmHg 93%
    05:00 -1°C° 0 mm 5 mps 753 mmHg 93%
    06:00 -1°C° 0.1 mm 5 mps 753 mmHg 94%
    07:00 -1°C° 0.1 mm 5 mps 753 mmHg 95%
    08:00 -1°C° 0.1 mm 5 mps 753 mmHg 95%
    09:00 -1°C° 0 mm 5 mps 753 mmHg 95%
    10:00 0°C° 0 mm 5 mps 753 mmHg 95%
    11:00 0°C° 0 mm 5 mps 753 mmHg 94%
    12:00 0°C° 0 mm 5 mps 753 mmHg 92%
    13:00 0°C° 0 mm 5 mps 753 mmHg 90%
    14:00 0°C° 0 mm 5 mps 753 mmHg 88%
    15:00 0°C° 0 mm 5 mps 752 mmHg 85%
    16:00 -1°C° 0 mm 5 mps 752 mmHg 82%
    17:00 -1°C° 0 mm 5 mps 752 mmHg 78%
    18:00 -1°C° 0 mm 5 mps 752 mmHg 80%
    19:00 -1°C° 0 mm 5 mps 752 mmHg 82%
    20:00 -1°C° 0 mm 5 mps 752 mmHg 84%
    21:00 -2°C° 0 mm 5 mps 752 mmHg 85%
    22:00 -2°C° 0 mm 5 mps 752 mmHg 86%
    23:00 -3°C° 0 mm 4 mps 752 mmHg 87%

    26 February, Tuesday

    Time Temperature Precipitation Wind Pressure Humidity
    00:00 -4°C° 0 mm 5 mps 751 mmHg 89%
    01:00 -4°C° 0 mm 5 mps 751 mmHg 90%
    02:00 -4°C° 0 mm 5 mps 751 mmHg 92%
    03:00 -4°C° 0 mm 5 mps 750 mmHg 91%
    04:00 -4°C° 0 mm 5 mps 750 mmHg 91%
    05:00 -3°C° 0 mm 4 mps 749 mmHg 90%
    06:00 -3°C° 0 mm 4 mps 749 mmHg 90%
    07:00 -3°C° 0 mm 4 mps 749 mmHg 90%
    08:00 -3°C° 0 mm 4 mps 748 mmHg 90%
    09:00 -2°C° 0 mm 4 mps 747 mmHg 90%
    10:00 -2°C° 0 mm 4 mps 747 mmHg 90%
    11:00 -2°C° 0 mm 5 mps 746 mmHg 90%
    12:00 -1°C° 0 mm 5 mps 745 mmHg 89%
    13:00 -1°C° 0 mm 5 mps 744 mmHg 89%
    14:00 -1°C° 0 mm 5 mps 743 mmHg 89%
    15:00 -1°C° 0 mm 5 mps 742 mmHg 89%
    16:00 -1°C° 0 mm 6 mps 741 mmHg 88%
    17:00 -1°C° 0 mm 6 mps 740 mmHg 88%
    18:00 -1°C° 0.1 mm 7 mps 740 mmHg 86%
    19:00 -2°C° 0.1 mm 7 mps 740 mmHg 83%
    20:00 -2°C° 0.1 mm 7 mps 740 mmHg 81%
    21:00 -2°C° 0 mm 7 mps 740 mmHg 82%
    22:00 -2°C° 0 mm 7 mps 740 mmHg 82%
    23:00 -2°C° 0 mm 7 mps 740 mmHg 83%
    Show more